TimeCDT,TemperatureF,Dew PointF,Humidity,Sea Level PressureIn,VisibilityMPH,Wind Direction,Wind SpeedMPH,Gust SpeedMPH,PrecipitationIn,Events,Conditions,WindDirDegrees,DateUTC
12:53 AM,75.0,71.1,87,29.92,8.0,Calm,Calm,-,N/A,,Clear,0,2013-06-17 05:53:00
1:53 AM,75.0,71.1,87,29.89,9.0,South,3.5,-,N/A,,Clear,170,2013-06-17 06:53:00
2:53 AM,75.0,70.0,84,29.90,10.0,Calm,Calm,-,N/A,,Clear,0,2013-06-17 07:53:00
3:53 AM,73.0,70.0,90,29.91,8.0,Calm,Calm,-,N/A,,Clear,0,2013-06-17 08:53:00
4:53 AM,73.0,70.0,90,29.89,7.0,Calm,Calm,-,N/A,,Clear,0,2013-06-17 09:53:00
5:53 AM,73.9,69.1,85,29.91,7.0,Calm,Calm,-,N/A,,Overcast,0,2013-06-17 10:53:00
6:53 AM,75.0,70.0,84,29.91,5.0,Calm,Calm,-,N/A,,Haze,0,2013-06-17 11:53:00
7:53 AM,78.1,70.0,76,29.90,6.0,Calm,Calm,-,N/A,,Haze,0,2013-06-17 12:53:00
8:53 AM,81.0,72.0,74,29.90,7.0,Variable,3.5,-,N/A,,Partly Cloudy,0,2013-06-17 13:53:00
9:53 AM,84.0,73.0,69,29.90,10.0,SSW,6.9,-,N/A,,Clear,210,2013-06-17 14:53:00
10:53 AM,84.9,70.0,61,29.91,10.0,SW,8.1,-,N/A,,Clear,220,2013-06-17 15:53:00
11:53 AM,84.9,69.1,59,29.91,10.0,SSW,6.9,-,N/A,,Clear,210,2013-06-17 16:53:00
12:53 PM,86.0,71.1,61,29.88,10.0,SW,8.1,-,N/A,,Clear,230,2013-06-17 17:53:00
1:53 PM,86.0,72.0,63,29.87,10.0,SW,8.1,-,N/A,,Clear,230,2013-06-17 18:53:00
2:17 PM,87.8,71.6,58,29.87,9.0,SW,10.4,-,N/A,Thunderstorm,Clear,220,2013-06-17 19:17:00
2:32 PM,82.4,69.8,66,29.88,10.0,South,15.0,19.6,N/A,,Scattered Clouds,180,2013-06-17 19:32:00
2:41 PM,78.8,69.8,74,29.87,10.0,South,12.7,21.9,N/A,,Mostly Cloudy,170,2013-06-17 19:41:00
2:53 PM,80.1,70.0,71,29.86,8.0,South,9.2,-,0.00,Rain,Light Rain,180,2013-06-17 19:53:00
3:08 PM,80.6,71.6,74,29.87,10.0,South,11.5,-,0.00,Rain,Light Rain,170,2013-06-17 20:08:00
3:53 PM,80.1,71.1,74,29.86,10.0,SSW,13.8,-,0.00,,Overcast,210,2013-06-17 20:53:00
4:26 PM,78.8,69.8,74,29.88,10.0,SSW,12.7,-,N/A,,Mostly Cloudy,200,2013-06-17 21:26:00
4:33 PM,78.8,69.8,74,29.88,10.0,SSW,8.1,-,0.00,Rain,Light Rain,200,2013-06-17 21:33:00
4:53 PM,75.9,70.0,82,29.87,9.0,SSW,10.4,-,0.01,Rain,Light Rain,200,2013-06-17 21:53:00
5:31 PM,75.2,71.6,89,29.88,10.0,SW,3.5,-,0.01,,Overcast,220,2013-06-17 22:31:00
5:53 PM,75.9,71.1,85,29.86,10.0,WSW,3.5,-,0.01,,Overcast,250,2013-06-17 22:53:00
6:14 PM,73.4,69.8,88,29.87,4.0,North,12.7,17.3,0.02,Rain,Light Rain,10,2013-06-17 23:14:00
6:25 PM,73.4,69.8,88,29.87,10.0,NNE,10.4,-,0.02,Rain,Light Rain,30,2013-06-17 23:25:00
6:53 PM,71.1,68.0,90,29.88,10.0,NE,12.7,-,0.02,,Overcast,40,2013-06-17 23:53:00
7:01 PM,71.6,68.0,88,29.90,10.0,NE,10.4,-,N/A,,Overcast,40,2013-06-18 00:01:00
7:13 PM,71.6,68.0,88,29.89,2.5,NE,11.5,-,0.05,Rain,Heavy Rain,50,2013-06-18 00:13:00
7:24 PM,71.6,68.0,88,29.90,6.0,NNE,9.2,-,0.08,Rain,Light Rain,30,2013-06-18 00:24:00
7:53 PM,71.1,68.0,90,29.89,3.0,NNE,11.5,-,0.12,Rain,Rain,20,2013-06-18 00:53:00
8:04 PM,71.6,68.0,88,29.91,2.5,NNE,10.4,-,0.04,Rain,Heavy Rain,30,2013-06-18 01:04:00
8:14 PM,71.6,68.0,88,29.91,3.0,NNE,9.2,-,0.11,Rain,Heavy Rain,30,2013-06-18 01:14:00
8:53 PM,71.1,68.0,90,29.91,4.0,NNE,13.8,-,0.22,Rain,Rain,30,2013-06-18 01:53:00
9:10 PM,71.6,66.2,83,29.92,8.0,NNE,10.4,21.9,0.01,,Overcast,30,2013-06-18 02:10:00
9:34 PM,69.8,66.2,88,29.93,10.0,NNE,12.7,-,0.01,,Overcast,20,2013-06-18 02:34:00
9:53 PM,70.0,66.0,87,29.91,10.0,NE,8.1,-,0.01,,Overcast,40,2013-06-18 02:53:00
10:53 PM,70.0,64.9,84,29.90,10.0,Calm,Calm,-,N/A,,Overcast,0,2013-06-18 03:53:00
11:53 PM,69.1,64.9,87,29.88,10.0,Calm,Calm,-,N/A,,Mostly Cloudy,0,2013-06-18 04:53:00